Location: Mohawk View
(42.7837°N, 73.7885°W)
Time: 02:14:00
(UTC+00:00)

Cosmos 2333 Rocket - Pass Details

Date: 17 June 2021
Orbit: 841 x 861 km, 70.8° (Epoch: 02 August)

Event Time Altitude Azimuth Distance (km) Brightness Sun altitude
Exits shadow 02:14:49 20° 151° (SSE) 1,876 3.4 -14.1°
Maximum altitude 02:17:48 32° 104° (ESE) 1,430 3.0 -14.5°
Drops below altitude 10° 02:22:48 10° 43° (NE) 2,493 4.8 -15.0°
Sets 02:25:28 0° 34° (NE) 3,431 5.6 -15.3°
